sat.trackr.live / text

‹ back to catalog

BEIDOU-2 M6 (C14)

NORAD 38775 · 2012-050B

PAYLOAD ACTIVE UNKNOWN

§ Identity

Operator
Country
PRC
Launch date
2012-09-18
Launch site
XICLF
Launch vehicle
Mass (kg)
RCS (m²)
10.00

Purposes: nav

External: N2YO · Heavens-Above · Gunter

§ Orbital elements

Epoch: 2026-05-24T04:54:38.333376Z

Period
773.23 min
Inclination
56.5243°
Eccentricity
0.0014179
Mean motion
1.86230909 rev/d
Perigee alt
21,488.5 km
Apogee alt
21,567.6 km
Semi-major
27,906.2 km
B*
0.0000e+0
RAAN
63.6871°
Arg perigee
353.4457°
Mean anomaly
6.5303°
Rev number
9,286

§ Raw data

BEIDOU-2 M6 (C14)1 38775U 12050B   26144.20461034 -.00000067  00000+0  00000+0 0  99972 38775  56.5243  63.6871 0014179 353.4457   6.5303  1.86230909 92861

JSON: /api/v1/satellites/38775 · /tle

For live sub-satellite position, see the globe view (requires WebGL).

§ Visibility from observer

Set your observer location to see the next 7 days of passes ≥ 10°. The values pass through the URL so the page stays shareable.

No JS? Fill the form by hand. The geolocation button needs JavaScript.